Time,TemperatureF,DewpointF,PressureIn,WindDirection,WindDirectionDegrees,WindSpeedMPH,WindSpeedGustMPH,Humidity,HourlyPrecipIn,Conditions,Clouds,dailyrainin,SoftwareType,DateUTC
2013-08-03 00:01:00,63.4,60.4,29.88,SW,225,0.0,2.0,90,0.00,,SCT250,0.18,VWS V14.01,2013-08-03 04:01:00,
2013-08-03 00:02:00,63.4,60.4,29.88,SW,225,0.0,2.0,90,0.00,,SCT250,0.00,VWS V14.01,2013-08-03 04:02:00,
2013-08-03 00:07:00,63.4,60.4,29.88,SW,225,0.0,2.0,90,0.00,,SCT250,0.00,VWS V14.01,2013-08-03 04:07:00,
2013-08-03 00:12:00,63.3,60.3,29.88,SW,225,0.0,2.0,90,0.00,,SCT250,0.00,VWS V14.01,2013-08-03 04:12:00,
2013-08-03 00:17:00,63.3,60.3,29.88,SW,225,0.0,2.0,90,0.00,,SCT250,0.00,VWS V14.01,2013-08-03 04:17:00,
2013-08-03 00:22:00,63.1,60.1,29.88,SW,225,0.0,2.0,90,0.00,,SCT250,0.00,VWS V14.01,2013-08-03 04:22:00,
2013-08-03 00:27:00,63.1,60.4,29.88,SW,225,0.0,2.0,91,0.00,,SCT250,0.00,VWS V14.01,2013-08-03 04:27:00,
2013-08-03 00:32:00,63.1,60.4,29.88,SW,225,0.0,2.0,91,0.00,,SCT250,0.00,VWS V14.01,2013-08-03 04:32:00,
2013-08-03 00:37:00,63.1,60.4,29.88,SW,225,0.0,2.0,91,0.00,,SCT250,0.00,VWS V14.01,2013-08-03 04:37:00,
2013-08-03 00:42:00,62.9,60.2,29.87,SW,225,0.0,2.0,91,0.00,,SCT250,0.00,VWS V14.01,2013-08-03 04:42:00,
2013-08-03 00:47:00,63.1,60.4,29.87,SW,225,0.0,2.0,91,0.00,,SCT250,0.00,VWS V14.01,2013-08-03 04:47:00,
2013-08-03 00:52:00,63.1,60.4,29.87,SW,225,0.0,2.0,91,0.00,,SCT250,0.00,VWS V14.01,2013-08-03 04:52:00,
2013-08-03 00:57:00,63.1,60.4,29.87,SW,225,0.0,2.0,91,0.00,,SCT250,0.00,VWS V14.01,2013-08-03 04:57:00,
2013-08-03 01:02:00,63.1,60.4,29.86,SW,225,0.0,2.0,91,0.00,,BKN250,0.00,VWS V14.01,2013-08-03 05:02:00,
2013-08-03 01:07:00,63.3,60.3,29.86,SW,225,0.0,2.0,90,0.00,,BKN250,0.00,VWS V14.01,2013-08-03 05:07:00,
2013-08-03 01:12:00,63.3,60.3,29.86,SW,225,1.0,2.0,90,0.00,,BKN250,0.00,VWS V14.01,2013-08-03 05:12:00,
2013-08-03 01:17:00,63.3,60.3,29.86,SW,225,1.0,2.0,90,0.00,,BKN250,0.00,VWS V14.01,2013-08-03 05:17:00,
2013-08-03 01:22:00,63.4,60.1,29.86,SW,225,3.0,3.0,89,0.00,,BKN250,0.00,VWS V14.01,2013-08-03 05:22:00,
2013-08-03 01:27:00,63.4,60.1,29.86,SW,225,0.0,2.0,89,0.00,,BKN250,0.00,VWS V14.01,2013-08-03 05:27:00,
2013-08-03 01:32:00,63.4,60.1,29.86,SW,225,0.0,2.0,89,0.00,,BKN250,0.00,VWS V14.01,2013-08-03 05:32:00,
2013-08-03 01:37:00,63.4,60.1,29.85,SW,225,0.0,2.0,89,0.00,,BKN250,0.00,VWS V14.01,2013-08-03 05:37:00,
2013-08-03 01:42:00,63.3,60.0,29.85,SW,225,0.0,2.0,89,0.00,,BKN250,0.00,VWS V14.01,2013-08-03 05:42:00,
2013-08-03 01:47:00,63.3,60.0,29.85,SW,225,0.0,2.0,89,0.00,,BKN250,0.00,VWS V14.01,2013-08-03 05:47:00,
2013-08-03 01:52:00,63.3,60.3,29.85,SW,225,0.0,2.0,90,0.00,,BKN250,0.00,VWS V14.01,2013-08-03 05:52:00,
2013-08-03 01:57:00,63.1,60.1,29.85,SW,225,0.0,2.0,90,0.00,,BKN250,0.00,VWS V14.01,2013-08-03 05:57:00,
2013-08-03 02:02:00,63.1,60.1,29.85,SW,225,0.0,2.0,90,0.00,,BKN250,0.00,VWS V14.01,2013-08-03 06:02:00,
2013-08-03 02:07:00,63.1,60.1,29.85,SW,225,0.0,2.0,90,0.00,,BKN250,0.00,VWS V14.01,2013-08-03 06:07:00,
2013-08-03 02:12:00,63.1,60.1,29.86,SW,225,3.0,3.0,90,0.00,,BKN250,0.00,VWS V14.01,2013-08-03 06:12:00,
2013-08-03 02:17:00,63.1,60.1,29.86,SW,225,1.0,2.0,90,0.00,,BKN250,0.00,VWS V14.01,2013-08-03 06:17:00,
2013-08-03 02:23:00,63.3,60.0,29.85,SW,225,2.0,2.0,89,0.00,,BKN250,0.00,VWS V14.01,2013-08-03 06:23:00,
2013-08-03 02:28:00,63.3,60.0,29.86,SW,225,2.0,2.0,89,0.00,,BKN250,0.00,VWS V14.01,2013-08-03 06:28:00,
2013-08-03 02:32:00,63.1,59.8,29.85,SW,225,0.0,2.0,89,0.00,,BKN250,0.00,VWS V14.01,2013-08-03 06:32:00,
2013-08-03 02:37:00,63.1,59.5,29.85,SW,225,0.0,2.0,88,0.00,,BKN250,0.00,VWS V14.01,2013-08-03 06:37:00,
2013-08-03 02:43:00,63.1,59.5,29.84,SW,225,1.0,2.0,88,0.00,,BKN250,0.00,VWS V14.01,2013-08-03 06:43:00,
2013-08-03 02:48:00,62.9,59.3,29.84,SW,225,0.0,2.0,88,0.00,,BKN250,0.00,VWS V14.01,2013-08-03 06:48:00,
2013-08-03 02:53:00,62.8,59.5,29.84,SW,225,0.0,2.0,89,0.00,,BKN250,0.00,VWS V14.01,2013-08-03 06:53:00,
2013-08-03 02:58:00,62.8,59.5,29.84,SW,225,0.0,2.0,89,0.00,,BKN250,0.00,VWS V14.01,2013-08-03 06:58:00,
2013-08-03 03:03:00,62.6,59.3,29.84,SW,225,0.0,2.0,89,0.00,,BKN250,0.00,VWS V14.01,2013-08-03 07:03:00,
2013-08-03 03:08:00,62.6,59.3,29.84,SW,225,0.0,2.0,89,0.00,,BKN250,0.00,VWS V14.01,2013-08-03 07:08:00,
2013-08-03 03:13:00,62.5,59.2,29.84,SW,225,0.0,2.0,89,0.00,,BKN250,0.00,VWS V14.01,2013-08-03 07:13:00,
2013-08-03 03:18:00,62.3,59.3,29.83,SW,225,0.0,2.0,90,0.00,,BKN250,0.00,VWS V14.01,2013-08-03 07:18:00,
2013-08-03 03:23:00,62.3,59.3,29.83,SW,225,0.0,2.0,90,0.00,,BKN250,0.00,VWS V14.01,2013-08-03 07:23:00,
2013-08-03 03:28:00,62.1,58.8,29.83,SW,225,0.0,2.0,89,0.00,,BKN250,0.00,VWS V14.01,2013-08-03 07:28:00,
2013-08-03 03:33:00,62.1,58.8,29.83,SW,225,0.0,2.0,89,0.00,,BKN250,0.00,VWS V14.01,2013-08-03 07:33:00,
2013-08-03 03:38:00,62.0,58.7,29.83,SW,225,0.0,2.0,89,0.00,,BKN250,0.00,VWS V14.01,2013-08-03 07:38:00,
2013-08-03 03:43:00,62.0,58.7,29.83,SW,225,0.0,2.0,89,0.00,,BKN250,0.00,VWS V14.01,2013-08-03 07:43:00,
2013-08-03 03:48:00,62.0,58.7,29.83,SW,225,0.0,2.0,89,0.00,,BKN250,0.00,VWS V14.01,2013-08-03 07:48:00,
2013-08-03 03:53:00,61.8,58.5,29.84,SW,225,0.0,2.0,89,0.00,,BKN250,0.00,VWS V14.01,2013-08-03 07:53:00,
2013-08-03 03:58:00,61.8,58.5,29.83,SW,225,0.0,2.0,89,0.00,,BKN250,0.00,VWS V14.01,2013-08-03 07:58:00,
2013-08-03 04:03:00,61.8,58.5,29.84,SW,225,0.0,2.0,89,0.00,,BKN250,0.00,VWS V14.01,2013-08-03 08:03:00,
2013-08-03 04:08:00,61.8,58.5,29.84,SW,225,0.0,2.0,89,0.00,,BKN250,0.00,VWS V14.01,2013-08-03 08:08:00,
2013-08-03 04:13:00,61.7,58.4,29.84,SW,225,0.0,2.0,89,0.00,,BKN250,0.00,VWS V14.01,2013-08-03 08:13:00,
2013-08-03 04:18:00,61.7,58.4,29.84,SW,225,0.0,2.0,89,0.00,,BKN250,0.00,VWS V14.01,2013-08-03 08:18:00,
2013-08-03 04:23:00,61.7,58.4,29.84,SW,225,0.0,2.0,89,0.00,,BKN250,0.00,VWS V14.01,2013-08-03 08:23:00,
2013-08-03 04:28:00,61.5,58.2,29.84,SW,225,0.0,2.0,89,0.00,,BKN250,0.00,VWS V14.01,2013-08-03 08:28:00,
2013-08-03 04:33:00,61.5,58.5,29.84,SW,225,0.0,2.0,90,0.00,,BKN250,0.00,VWS V14.01,2013-08-03 08:33:00,
2013-08-03 04:38:00,61.5,58.5,29.84,SW,225,0.0,2.0,90,0.00,,BKN250,0.00,VWS V14.01,2013-08-03 08:38:00,
2013-08-03 04:43:00,61.4,58.5,29.84,SW,225,0.0,2.0,90,0.00,,BKN250,0.00,VWS V14.01,2013-08-03 08:43:00,
2013-08-03 04:48:00,61.4,58.5,29.84,SW,225,0.0,2.0,90,0.00,,BKN250,0.00,VWS V14.01,2013-08-03 08:48:00,
2013-08-03 04:53:00,61.4,58.5,29.85,SW,225,0.0,2.0,90,0.00,,BKN250,0.00,VWS V14.01,2013-08-03 08:53:00,
2013-08-03 04:58:00,61.5,58.5,29.84,SW,225,0.0,2.0,90,0.00,,BKN250,0.00,VWS V14.01,2013-08-03 08:58:00,
2013-08-03 05:03:00,61.5,58.5,29.84,SW,225,0.0,2.0,90,0.00,,CLR,0.00,VWS V14.01,2013-08-03 09:03:00,
2013-08-03 05:08:00,61.5,58.5,29.84,SW,225,0.0,2.0,90,0.00,,CLR,0.00,VWS V14.01,2013-08-03 09:08:00,
2013-08-03 05:13:00,61.7,58.7,29.84,SW,225,0.0,2.0,90,0.00,,CLR,0.00,VWS V14.01,2013-08-03 09:13:00,
2013-08-03 05:18:00,61.8,58.8,29.84,SW,225,0.0,2.0,90,0.00,,CLR,0.00,VWS V14.01,2013-08-03 09:18:00,
2013-08-03 05:23:00,61.8,58.5,29.85,SW,225,0.0,2.0,89,0.00,,CLR,0.00,VWS V14.01,2013-08-03 09:23:00,
2013-08-03 05:28:00,62.0,58.4,29.85,SW,225,0.0,2.0,88,0.00,,CLR,0.00,VWS V14.01,2013-08-03 09:28:00,
2013-08-03 05:33:00,62.1,58.8,29.85,SW,225,0.0,2.0,89,0.00,,CLR,0.00,VWS V14.01,2013-08-03 09:33:00,
2013-08-03 05:38:00,62.1,58.5,29.85,SW,225,0.0,2.0,88,0.00,,CLR,0.00,VWS V14.01,2013-08-03 09:38:00,
2013-08-03 05:43:00,62.1,58.2,29.85,SW,225,0.0,2.0,87,0.00,,CLR,0.00,VWS V14.01,2013-08-03 09:43:00,
2013-08-03 05:48:00,62.3,58.1,29.84,SW,225,3.0,3.0,86,0.00,,CLR,0.00,VWS V14.01,2013-08-03 09:48:00,
2013-08-03 05:53:00,62.5,57.9,29.84,SW,225,0.0,2.0,85,0.00,,CLR,0.00,VWS V14.01,2013-08-03 09:53:00,
2013-08-03 05:58:00,62.6,58.0,29.84,SW,225,0.0,2.0,85,0.00,,CLR,0.00,VWS V14.01,2013-08-03 09:58:00,
2013-08-03 06:03:00,62.6,57.7,29.84,SW,225,2.0,2.0,84,0.00,,BKN200,0.00,VWS V14.01,2013-08-03 10:03:00,
2013-08-03 06:08:00,62.8,57.6,29.85,SW,225,1.0,2.0,83,0.00,,BKN200,0.00,VWS V14.01,2013-08-03 10:08:00,
2013-08-03 06:13:00,62.9,57.7,29.85,SW,225,0.0,2.0,83,0.00,,BKN200,0.00,VWS V14.01,2013-08-03 10:13:00,
2013-08-03 06:18:00,63.1,57.9,29.85,SW,225,2.0,2.0,83,0.00,,BKN200,0.00,VWS V14.01,2013-08-03 10:18:00,
2013-08-03 06:23:00,63.1,57.9,29.85,SW,225,5.0,5.0,83,0.00,,BKN200,0.00,VWS V14.01,2013-08-03 10:23:00,
2013-08-03 06:28:00,63.3,57.7,29.85,WSW,248,1.0,2.0,82,0.00,,BKN200,0.00,VWS V14.01,2013-08-03 10:28:00,
2013-08-03 06:33:00,63.3,57.7,29.85,SW,236,4.0,4.0,82,0.00,,BKN200,0.00,VWS V14.01,2013-08-03 10:33:00,
2013-08-03 06:38:00,63.4,57.8,29.84,WSW,242,0.0,2.0,82,0.00,,BKN200,0.00,VWS V14.01,2013-08-03 10:38:00,
2013-08-03 06:43:00,63.4,57.8,29.85,WSW,242,12.0,12.0,82,0.00,,BKN200,0.00,VWS V14.01,2013-08-03 10:43:00,
2013-08-03 06:49:00,63.4,57.8,29.85,WSW,237,1.0,2.0,82,0.00,,BKN200,0.00,VWS V14.01,2013-08-03 10:49:00,
2013-08-03 06:54:00,63.6,57.7,29.85,SW,236,2.0,2.0,81,0.00,,BKN200,0.00,VWS V14.01,2013-08-03 10:54:00,
2013-08-03 06:59:00,63.6,58.0,29.85,SW,227,0.0,2.0,82,0.00,,BKN200,0.00,VWS V14.01,2013-08-03 10:59:00,
2013-08-03 07:03:00,63.7,58.1,29.85,SW,234,4.0,4.0,82,0.00,,BKN190,0.00,VWS V14.01,2013-08-03 11:03:00,
2013-08-03 07:09:00,63.7,58.5,29.84,SW,234,6.0,6.0,83,0.00,,BKN190,0.00,VWS V14.01,2013-08-03 11:09:00,
2013-08-03 07:13:00,63.7,58.5,29.85,SW,234,6.0,6.0,83,0.00,,BKN190,0.00,VWS V14.01,2013-08-03 11:13:00,
2013-08-03 07:19:00,63.7,58.5,29.85,SW,234,5.0,5.0,83,0.00,,BKN190,0.00,VWS V14.01,2013-08-03 11:19:00,
2013-08-03 07:24:00,63.7,58.5,29.85,SW,234,0.0,2.0,83,0.00,,BKN190,0.00,VWS V14.01,2013-08-03 11:24:00,
2013-08-03 07:28:00,63.7,58.8,29.86,SW,234,4.0,4.0,84,0.00,,BKN190,0.00,VWS V14.01,2013-08-03 11:28:00,
2013-08-03 07:29:00,63.7,58.8,29.86,SW,234,4.0,4.0,84,0.00,,BKN190,0.00,VWS V14.01,2013-08-03 11:29:00,
2013-08-03 07:34:00,63.9,59.0,29.85,SW,234,0.0,2.0,84,0.00,,BKN190,0.00,VWS V14.01,2013-08-03 11:34:00,
2013-08-03 07:39:00,63.9,59.0,29.85,SW,234,1.0,2.0,84,0.00,,BKN190,0.00,VWS V14.01,2013-08-03 11:39:00,
2013-08-03 07:44:00,63.9,59.3,29.85,SW,234,1.0,2.0,85,0.00,,BKN190,0.00,VWS V14.01,2013-08-03 11:44:00,
2013-08-03 07:49:00,64.1,59.5,29.85,SW,232,0.0,2.0,85,0.00,,BKN190,0.00,VWS V14.01,2013-08-03 11:49:00,
2013-08-03 07:53:00,64.2,59.6,29.85,SW,229,0.0,2.0,85,0.00,,BKN190,0.00,VWS V14.01,2013-08-03 11:53:00,
2013-08-03 07:59:00,64.4,59.8,29.85,SW,229,1.0,2.0,85,0.00,,BKN190,0.00,VWS V14.01,2013-08-03 11:59:00,
2013-08-03 08:04:00,64.6,60.0,29.86,SW,229,0.0,2.0,85,0.00,,OVC150,0.00,VWS V14.01,2013-08-03 12:04:00,
2013-08-03 08:09:00,64.7,60.1,29.86,SW,229,0.0,2.0,85,0.00,,OVC150,0.00,VWS V14.01,2013-08-03 12:09:00,
2013-08-03 08:14:00,64.9,60.6,29.87,SW,229,0.0,2.0,86,0.00,,OVC150,0.00,VWS V14.01,2013-08-03 12:14:00,
2013-08-03 08:19:00,65.0,60.4,29.86,SW,232,0.0,2.0,85,0.00,,OVC150,0.00,VWS V14.01,2013-08-03 12:19:00,
2013-08-03 08:24:00,65.2,60.6,29.86,SW,232,1.0,2.0,85,0.00,,OVC150,0.00,VWS V14.01,2013-08-03 12:24:00,
2013-08-03 08:29:00,65.2,60.6,29.86,SW,232,0.0,2.0,85,0.00,,OVC150,0.00,VWS V14.01,2013-08-03 12:29:00,
2013-08-03 08:34:00,65.4,61.4,29.86,SW,232,0.0,2.0,87,0.00,,OVC150,0.00,VWS V14.01,2013-08-03 12:34:00,
2013-08-03 08:39:00,65.2,61.2,29.86,SW,231,2.0,2.0,87,0.00,,OVC150,0.00,VWS V14.01,2013-08-03 12:39:00,
2013-08-03 08:44:00,65.2,61.6,29.86,SW,232,0.0,2.0,88,0.00,,OVC150,0.00,VWS V14.01,2013-08-03 12:44:00,
2013-08-03 08:49:00,65.2,61.6,29.86,SW,232,0.0,2.0,88,0.00,,OVC150,0.00,VWS V14.01,2013-08-03 12:49:00,
2013-08-03 08:54:00,65.2,61.6,29.86,SW,231,0.0,2.0,88,0.00,,OVC150,0.00,VWS V14.01,2013-08-03 12:54:00,
2013-08-03 08:59:00,65.2,61.6,29.86,SW,231,0.0,2.0,88,0.00,,OVC150,0.00,VWS V14.01,2013-08-03 12:59:00,
2013-08-03 09:04:00,65.4,62.1,29.86,SW,231,3.0,3.0,89,0.00,,OVC230,0.00,VWS V14.01,2013-08-03 13:04:00,
2013-08-03 09:09:00,65.4,61.8,29.85,SW,231,0.0,2.0,88,0.00,,OVC230,0.00,VWS V14.01,2013-08-03 13:09:00,
2013-08-03 09:14:00,65.5,61.9,29.85,SW,231,0.0,2.0,88,0.00,,OVC230,0.00,VWS V14.01,2013-08-03 13:14:00,
2013-08-03 09:19:00,65.5,61.9,29.85,SW,231,4.0,4.0,88,0.00,,OVC230,0.00,VWS V14.01,2013-08-03 13:19:00,
2013-08-03 09:24:00,65.5,61.9,29.85,SW,231,1.0,2.0,88,0.00,,OVC230,0.00,VWS V14.01,2013-08-03 13:24:00,
2013-08-03 09:29:00,65.7,62.0,29.85,SW,231,0.0,2.0,88,0.00,,OVC230,0.00,VWS V14.01,2013-08-03 13:29:00,
2013-08-03 09:34:00,65.7,62.4,29.85,SW,231,0.0,2.0,89,0.00,,OVC230,0.00,VWS V14.01,2013-08-03 13:34:00,
2013-08-03 09:39:00,65.7,62.4,29.85,SW,231,0.0,2.0,89,0.00,,OVC230,0.00,VWS V14.01,2013-08-03 13:39:00,
2013-08-03 09:44:00,65.7,62.0,29.85,SW,231,0.0,2.0,88,0.00,,OVC230,0.00,VWS V14.01,2013-08-03 13:44:00,
2013-08-03 09:49:00,65.7,62.4,29.86,SW,231,6.0,6.0,89,0.00,,OVC230,0.00,VWS V14.01,2013-08-03 13:49:00,
2013-08-03 09:54:00,65.5,62.2,29.86,SW,234,12.0,12.0,89,0.00,,OVC230,0.00,VWS V14.01,2013-08-03 13:54:00,
2013-08-03 09:59:00,65.5,62.2,29.85,SW,234,0.0,2.0,89,0.00,,BKN230,0.00,VWS V14.01,2013-08-03 13:59:00,
2013-08-03 10:04:00,65.7,62.7,29.85,SW,234,0.0,2.0,90,0.00,,BKN230,0.00,VWS V14.01,2013-08-03 14:04:00,
2013-08-03 10:10:00,65.5,62.5,29.86,SW,234,0.0,2.0,90,0.00,,BKN230,0.00,VWS V14.01,2013-08-03 14:10:00,
2013-08-03 10:15:00,65.4,62.4,29.86,SW,234,0.0,2.0,90,0.00,,BKN230,0.00,VWS V14.01,2013-08-03 14:15:00,
2013-08-03 10:20:00,65.4,62.4,29.86,SW,234,0.0,2.0,90,0.00,,BKN230,0.00,VWS V14.01,2013-08-03 14:20:00,
2013-08-03 10:25:00,65.4,62.4,29.86,SW,234,0.0,2.0,90,0.00,,BKN230,0.00,VWS V14.01,2013-08-03 14:25:00,
2013-08-03 10:30:00,65.4,62.4,29.86,SW,234,0.0,2.0,90,0.00,,BKN230,0.00,VWS V14.01,2013-08-03 14:30:00,
2013-08-03 10:35:00,65.4,62.4,29.86,SW,234,3.0,3.0,90,0.00,,BKN230,0.00,VWS V14.01,2013-08-03 14:35:00,
2013-08-03 10:39:00,65.5,62.8,29.86,SW,234,1.0,2.0,91,0.00,,BKN230,0.00,VWS V14.01,2013-08-03 14:39:00,
2013-08-03 10:45:00,65.7,62.7,29.86,SW,234,0.0,2.0,90,0.00,,BKN230,0.00,VWS V14.01,2013-08-03 14:45:00,
2013-08-03 10:50:00,65.7,62.4,29.86,SW,234,4.0,4.0,89,0.00,,BKN230,0.00,VWS V14.01,2013-08-03 14:50:00,
2013-08-03 10:55:00,65.8,62.5,29.86,SW,232,8.0,8.0,89,0.00,,BKN230,0.00,VWS V14.01,2013-08-03 14:55:00,
2013-08-03 11:00:00,66.0,62.7,29.86,SW,230,7.0,7.0,89,0.00,,BKN250,0.00,VWS V14.01,2013-08-03 15:00:00,
2013-08-03 11:05:00,66.2,64.1,29.86,SW,227,0.0,2.0,93,0.00,,BKN250,0.00,VWS V14.01,2013-08-03 15:05:00,
2013-08-03 11:10:00,66.3,62.6,29.86,SW,229,0.0,2.0,88,0.00,,BKN250,0.00,VWS V14.01,2013-08-03 15:10:00,
2013-08-03 11:15:00,66.5,62.5,29.86,WSW,237,0.0,2.0,87,0.00,,BKN250,0.00,VWS V14.01,2013-08-03 15:15:00,
2013-08-03 11:20:00,66.7,62.4,29.86,SW,234,4.0,4.0,86,0.00,,BKN250,0.00,VWS V14.01,2013-08-03 15:20:00,
2013-08-03 11:25:00,67.0,62.7,29.86,SW,234,0.0,2.0,86,0.00,,BKN250,0.00,VWS V14.01,2013-08-03 15:25:00,
2013-08-03 11:30:00,67.2,62.5,29.85,SW,234,2.0,2.0,85,0.00,,BKN250,0.00,VWS V14.01,2013-08-03 15:30:00,
2013-08-03 11:35:00,67.3,62.6,29.85,SW,234,0.0,2.0,85,0.00,,BKN250,0.00,VWS V14.01,2013-08-03 15:35:00,
2013-08-03 11:40:00,67.5,62.5,29.85,SW,234,2.0,2.0,84,0.00,,BKN250,0.00,VWS V14.01,2013-08-03 15:40:00,
2013-08-03 11:45:00,67.8,62.8,29.85,SW,234,4.0,4.0,84,0.00,,BKN250,0.00,VWS V14.01,2013-08-03 15:45:00,
2013-08-03 11:50:00,68.0,62.7,29.85,SW,234,10.0,10.0,83,0.00,,BKN250,0.00,VWS V14.01,2013-08-03 15:50:00,
2013-08-03 11:55:00,68.3,62.9,29.85,SW,234,0.0,2.0,83,0.00,,BKN250,0.00,VWS V14.01,2013-08-03 15:55:00,
2013-08-03 12:01:00,68.8,63.4,29.86,SW,234,0.0,2.0,83,0.00,,BKN250,0.00,VWS V14.01,2013-08-03 16:01:00,
2013-08-03 12:06:00,69.5,63.1,29.86,SW,234,0.0,2.0,80,0.00,,BKN250,0.00,VWS V14.01,2013-08-03 16:06:00,
2013-08-03 12:11:00,69.8,63.0,29.86,SW,234,5.0,5.0,79,0.00,,BKN250,0.00,VWS V14.01,2013-08-03 16:11:00,
2013-08-03 12:16:00,70.0,62.8,29.86,SW,232,0.0,2.0,78,0.00,,BKN250,0.00,VWS V14.01,2013-08-03 16:16:00,
2013-08-03 12:21:00,70.3,63.8,29.86,SW,232,0.0,2.0,80,0.00,,BKN250,0.00,VWS V14.01,2013-08-03 16:21:00,
2013-08-03 12:26:00,70.7,63.9,29.85,SW,232,0.0,2.0,79,0.00,,BKN250,0.00,VWS V14.01,2013-08-03 16:26:00,
2013-08-03 12:31:00,71.2,64.0,29.85,SW,232,6.0,6.0,78,0.00,,BKN250,0.00,VWS V14.01,2013-08-03 16:31:00,
2013-08-03 12:36:00,71.4,64.2,29.85,SW,232,4.0,4.0,78,0.00,,BKN250,0.00,VWS V14.01,2013-08-03 16:36:00,
2013-08-03 12:41:00,71.5,63.9,29.85,SW,232,3.0,3.0,77,0.00,,BKN250,0.00,VWS V14.01,2013-08-03 16:41:00,
2013-08-03 12:46:00,71.7,63.4,29.86,SW,232,0.0,2.0,75,0.00,,BKN250,0.00,VWS V14.01,2013-08-03 16:46:00,
2013-08-03 12:51:00,72.1,63.8,29.86,SW,232,4.0,4.0,75,0.00,,BKN250,0.00,VWS V14.01,2013-08-03 16:51:00,
2013-08-03 12:56:00,71.9,63.5,29.86,SW,229,3.0,3.0,75,0.00,,BKN250,0.00,VWS V14.01,2013-08-03 16:56:00,
2013-08-03 13:01:00,71.9,63.2,29.85,SW,229,0.0,2.0,74,0.00,,BKN220,0.00,VWS V14.01,2013-08-03 17:01:00,
2013-08-03 13:07:00,71.9,63.2,29.85,SW,229,0.0,2.0,74,0.00,,BKN220,0.00,VWS V14.01,2013-08-03 17:07:00,
2013-08-03 13:12:00,72.1,63.4,29.86,SW,229,0.0,2.0,74,0.00,,BKN220,0.00,VWS V14.01,2013-08-03 17:12:00,
2013-08-03 13:17:00,71.5,63.2,29.86,SW,229,0.0,2.0,75,0.00,,BKN220,0.00,VWS V14.01,2013-08-03 17:17:00,
2013-08-03 13:22:00,71.5,63.2,29.86,SW,229,0.0,2.0,75,0.00,,BKN220,0.00,VWS V14.01,2013-08-03 17:22:00,
2013-08-03 13:27:00,71.5,63.2,29.85,SW,229,1.0,2.0,75,0.00,,BKN220,0.00,VWS V14.01,2013-08-03 17:27:00,
2013-08-03 13:32:00,72.1,63.0,29.85,SW,236,0.0,2.0,73,0.00,,BKN220,0.00,VWS V14.01,2013-08-03 17:32:00,
2013-08-03 13:37:00,72.4,62.5,29.85,SW,235,0.0,2.0,71,0.00,,BKN220,0.00,VWS V14.01,2013-08-03 17:37:00,
2013-08-03 13:42:00,72.1,62.2,29.85,SW,235,8.0,8.0,71,0.00,,BKN220,0.00,VWS V14.01,2013-08-03 17:42:00,
2013-08-03 13:47:00,72.1,62.2,29.85,SW,234,2.0,2.0,71,0.00,,BKN220,0.00,VWS V14.01,2013-08-03 17:47:00,
2013-08-03 13:52:00,72.6,63.5,29.85,SW,234,1.0,2.0,73,0.00,,BKN220,0.00,VWS V14.01,2013-08-03 17:52:00,
2013-08-03 13:57:00,73.4,62.6,29.85,SW,232,8.0,8.0,69,0.00,,BKN220,0.00,VWS V14.01,2013-08-03 17:57:00,
2013-08-03 14:02:00,73.8,62.6,29.84,SW,235,0.0,2.0,68,0.00,,BKN220,0.00,VWS V14.01,2013-08-03 18:02:00,
2013-08-03 14:07:00,73.8,62.6,29.84,SW,235,0.0,2.0,68,0.00,,BKN220,0.00,VWS V14.01,2013-08-03 18:07:00,
2013-08-03 14:12:00,74.0,63.2,29.84,SW,235,0.0,2.0,69,0.00,,BKN220,0.00,VWS V14.01,2013-08-03 18:12:00,
2013-08-03 14:17:00,74.7,63.5,29.84,SW,235,0.0,2.0,68,0.00,,BKN220,0.00,VWS V14.01,2013-08-03 18:17:00,
2013-08-03 14:22:00,74.8,63.1,29.84,SW,236,0.0,2.0,67,0.00,,BKN220,0.00,VWS V14.01,2013-08-03 18:22:00,
2013-08-03 14:27:00,74.3,63.5,29.84,SW,236,9.0,9.0,69,0.00,,BKN220,0.00,VWS V14.01,2013-08-03 18:27:00,
2013-08-03 14:32:00,74.3,62.2,29.84,WSW,238,0.0,2.0,66,0.00,,BKN220,0.00,VWS V14.01,2013-08-03 18:32:00,
2013-08-03 14:37:00,74.5,62.8,29.84,WSW,238,5.0,5.0,67,0.00,,BKN220,0.00,VWS V14.01,2013-08-03 18:37:00,
2013-08-03 14:42:00,75.5,63.8,29.84,WSW,238,3.0,3.0,67,0.00,,BKN220,0.00,VWS V14.01,2013-08-03 18:42:00,
2013-08-03 14:47:00,76.6,62.6,29.83,WSW,238,0.0,2.0,62,0.00,,BKN220,0.00,VWS V14.01,2013-08-03 18:47:00,
2013-08-03 14:52:00,76.8,63.3,29.83,WSW,237,0.0,2.0,63,0.00,,BKN220,0.00,VWS V14.01,2013-08-03 18:52:00,
2013-08-03 14:57:00,77.0,64.3,29.83,WSW,237,3.0,3.0,65,0.00,,BKN220,0.00,VWS V14.01,2013-08-03 18:57:00,
2013-08-03 15:02:00,77.0,62.5,29.83,WSW,237,3.0,3.0,61,0.00,,SCT250,0.00,VWS V14.01,2013-08-03 19:02:00,
2013-08-03 15:07:00,76.2,61.8,29.83,WSW,237,0.0,2.0,61,0.00,,SCT250,0.00,VWS V14.01,2013-08-03 19:07:00,
2013-08-03 15:12:00,76.2,61.3,29.83,WSW,237,9.0,9.0,60,0.00,,SCT250,0.00,VWS V14.01,2013-08-03 19:12:00,
2013-08-03 15:17:00,76.6,62.2,29.82,SW,227,4.0,4.0,61,0.00,,SCT250,0.00,VWS V14.01,2013-08-03 19:17:00,
2013-08-03 15:22:00,77.3,63.3,29.82,SW,229,0.0,2.0,62,0.00,,SCT250,0.00,VWS V14.01,2013-08-03 19:22:00,
2013-08-03 15:27:00,78.4,63.8,29.82,SW,229,0.0,2.0,61,0.00,,SCT250,0.00,VWS V14.01,2013-08-03 19:27:00,
2013-08-03 15:33:00,78.2,62.2,29.82,WSW,243,0.0,2.0,58,0.00,,SCT250,0.00,VWS V14.01,2013-08-03 19:33:00,
2013-08-03 15:38:00,77.9,62.4,29.82,WSW,243,0.0,2.0,59,0.00,,SCT250,0.00,VWS V14.01,2013-08-03 19:38:00,
2013-08-03 15:42:00,77.9,62.0,29.82,WSW,242,0.0,2.0,58,0.00,,SCT250,0.00,VWS V14.01,2013-08-03 19:42:00,
2013-08-03 15:48:00,77.5,62.5,29.82,WSW,242,1.0,2.0,60,0.00,,SCT250,0.00,VWS V14.01,2013-08-03 19:48:00,
2013-08-03 15:53:00,75.9,62.0,29.82,WSW,242,3.0,3.0,62,0.00,,SCT250,0.00,VWS V14.01,2013-08-03 19:53:00,
2013-08-03 15:58:00,75.0,62.9,29.82,WSW,242,6.0,6.0,66,0.00,,SCT250,0.00,VWS V14.01,2013-08-03 19:58:00,
2013-08-03 16:03:00,74.5,62.4,29.82,WSW,241,7.0,7.0,66,0.00,,SCT250,0.00,VWS V14.01,2013-08-03 20:03:00,
2013-08-03 16:07:00,74.1,62.0,29.82,WSW,241,0.0,2.0,66,0.00,,SCT250,0.00,VWS V14.01,2013-08-03 20:07:00,
2013-08-03 16:13:00,73.6,62.0,29.81,WSW,241,0.0,2.0,67,0.00,,SCT250,0.00,VWS V14.01,2013-08-03 20:13:00,
2013-08-03 16:17:00,73.4,62.6,29.82,WSW,241,2.0,2.0,69,0.00,,SCT250,0.00,VWS V14.01,2013-08-03 20:17:00,
2013-08-03 16:23:00,73.3,62.9,29.82,WSW,241,0.0,2.0,70,0.00,,SCT250,0.00,VWS V14.01,2013-08-03 20:23:00,
2013-08-03 16:27:00,73.1,62.7,29.81,WSW,242,0.0,2.0,70,0.00,,SCT250,0.00,VWS V14.01,2013-08-03 20:27:00,
2013-08-03 16:32:00,72.9,63.0,29.82,WSW,242,0.0,2.0,71,0.00,,SCT250,0.00,VWS V14.01,2013-08-03 20:32:00,
2013-08-03 16:38:00,72.6,62.7,29.82,WSW,242,0.0,2.0,71,0.00,,SCT250,0.00,VWS V14.01,2013-08-03 20:38:00,
2013-08-03 16:43:00,72.4,63.3,29.82,WSW,242,0.0,2.0,73,0.00,,SCT250,0.00,VWS V14.01,2013-08-03 20:43:00,
2013-08-03 16:48:00,72.4,63.7,29.81,WSW,242,0.0,2.0,74,0.00,,SCT250,0.00,VWS V14.01,2013-08-03 20:48:00,
2013-08-03 16:53:00,72.4,63.3,29.81,WSW,242,0.0,2.0,73,0.00,,SCT250,0.00,VWS V14.01,2013-08-03 20:53:00,
2013-08-03 16:58:00,72.6,63.1,29.81,WSW,242,2.0,2.0,72,0.00,,SCT250,0.00,VWS V14.01,2013-08-03 20:58:00,
2013-08-03 17:03:00,72.7,63.2,29.81,WSW,242,0.0,2.0,72,0.00,,BKN250,0.00,VWS V14.01,2013-08-03 21:03:00,
2013-08-03 17:08:00,72.9,63.0,29.81,WSW,242,0.0,2.0,71,0.00,,BKN250,0.00,VWS V14.01,2013-08-03 21:08:00,
2013-08-03 17:13:00,73.1,63.2,29.81,WSW,241,0.0,2.0,71,0.00,,BKN250,0.00,VWS V14.01,2013-08-03 21:13:00,
2013-08-03 17:18:00,73.3,62.9,29.81,WSW,240,0.0,2.0,70,0.00,,BKN250,0.00,VWS V14.01,2013-08-03 21:18:00,
2013-08-03 17:23:00,73.3,63.7,29.81,WSW,240,0.0,2.0,72,0.00,,BKN250,0.00,VWS V14.01,2013-08-03 21:23:00,
2013-08-03 17:28:00,73.3,63.3,29.81,SW,227,0.0,2.0,71,0.00,,BKN250,0.00,VWS V14.01,2013-08-03 21:28:00,
2013-08-03 17:33:00,74.0,62.4,29.81,SW,229,4.0,4.0,67,0.00,,BKN250,0.00,VWS V14.01,2013-08-03 21:33:00,
2013-08-03 17:38:00,74.8,63.5,29.81,SW,229,0.0,2.0,68,0.00,,BKN250,0.00,VWS V14.01,2013-08-03 21:38:00,
2013-08-03 17:43:00,75.4,64.5,29.81,WSW,252,5.0,5.0,69,0.00,,BKN250,0.00,VWS V14.01,2013-08-03 21:43:00,
2013-08-03 17:48:00,74.8,63.5,29.81,WSW,254,6.0,6.0,68,0.00,,BKN250,0.00,VWS V14.01,2013-08-03 21:48:00,
2013-08-03 17:53:00,74.3,64.3,29.82,WSW,254,0.0,2.0,71,0.00,,BKN250,0.00,VWS V14.01,2013-08-03 21:53:00,
2013-08-03 17:58:00,73.8,64.2,29.82,WSW,254,0.0,2.0,72,0.00,,BKN250,0.00,VWS V14.01,2013-08-03 21:58:00,
2013-08-03 18:03:00,73.3,63.7,29.82,WSW,254,5.0,5.0,72,0.00,,BKN250,0.00,VWS V14.01,2013-08-03 22:03:00,
2013-08-03 18:08:00,72.6,63.8,29.82,WSW,254,0.0,2.0,74,0.00,,BKN250,0.00,VWS V14.01,2013-08-03 22:08:00,
2013-08-03 18:13:00,72.1,63.4,29.81,WSW,254,0.0,2.0,74,0.00,,BKN250,0.00,VWS V14.01,2013-08-03 22:13:00,
2013-08-03 18:18:00,71.5,63.5,29.81,WSW,254,0.0,2.0,76,0.00,,BKN250,0.00,VWS V14.01,2013-08-03 22:18:00,
2013-08-03 18:23:00,71.0,63.4,29.81,WSW,254,0.0,2.0,77,0.00,,BKN250,0.00,VWS V14.01,2013-08-03 22:23:00,
2013-08-03 18:28:00,70.7,63.5,29.81,WSW,254,0.0,2.0,78,0.00,,BKN250,0.00,VWS V14.01,2013-08-03 22:28:00,
2013-08-03 18:33:00,70.3,63.5,29.81,WSW,254,0.0,2.0,79,0.00,,BKN250,0.00,VWS V14.01,2013-08-03 22:33:00,
2013-08-03 18:38:00,70.2,63.8,29.81,WSW,254,0.0,2.0,80,0.00,,BKN250,0.00,VWS V14.01,2013-08-03 22:38:00,
2013-08-03 18:43:00,70.2,64.1,29.81,WSW,254,0.0,2.0,81,0.00,,BKN250,0.00,VWS V14.01,2013-08-03 22:43:00,
2013-08-03 18:48:00,70.2,64.4,29.81,WSW,254,0.0,2.0,82,0.00,,BKN250,0.00,VWS V14.01,2013-08-03 22:48:00,
2013-08-03 18:53:00,70.2,64.4,29.81,WSW,254,0.0,2.0,82,0.00,,BKN250,0.00,VWS V14.01,2013-08-03 22:53:00,
2013-08-03 18:58:00,70.0,64.6,29.82,WSW,254,0.0,2.0,83,0.00,,BKN250,0.00,VWS V14.01,2013-08-03 22:58:00,
2013-08-03 19:03:00,70.0,64.6,29.82,WSW,254,0.0,2.0,83,0.00,,-RA,0.00,VWS V14.01,2013-08-03 23:03:00,
2013-08-03 19:08:00,69.7,64.7,29.82,WSW,254,0.0,2.0,84,0.00,,-RA,0.00,VWS V14.01,2013-08-03 23:08:00,
2013-08-03 19:13:00,69.5,64.5,29.83,WSW,254,0.0,2.0,84,0.00,,-RA,0.00,VWS V14.01,2013-08-03 23:13:00,
2013-08-03 19:18:00,69.3,64.3,29.83,WSW,254,0.0,2.0,84,0.00,,-RA,0.00,VWS V14.01,2013-08-03 23:18:00,
2013-08-03 19:23:00,69.2,64.5,29.83,WSW,254,0.0,2.0,85,0.00,,-RA,0.00,VWS V14.01,2013-08-03 23:23:00,
2013-08-03 19:28:00,69.2,64.8,29.83,WSW,254,0.0,2.0,86,0.00,,-RA,0.00,VWS V14.01,2013-08-03 23:28:00,
2013-08-03 19:33:00,69.2,65.2,29.83,West,277,0.0,2.0,87,0.01,,-RA,0.01,VWS V14.01,2013-08-03 23:33:00,
2013-08-03 19:38:00,69.2,65.5,29.83,West,277,6.0,6.0,88,0.02,,-RA,0.02,VWS V14.01,2013-08-03 23:38:00,
2013-08-03 19:43:00,68.7,65.3,29.84,WSW,237,6.0,6.0,89,0.03,,-RA,0.03,VWS V14.01,2013-08-03 23:43:00,
2013-08-03 19:48:00,67.3,63.0,29.83,WSW,238,9.0,9.0,86,0.03,,-RA,0.03,VWS V14.01,2013-08-03 23:48:00,
2013-08-03 19:53:00,66.0,61.4,29.83,SW,236,0.0,2.0,85,0.03,,-RA,0.03,VWS V14.01,2013-08-03 23:53:00,
2013-08-03 19:58:00,65.2,60.6,29.83,SW,236,0.0,2.0,85,0.03,,-RA,0.03,VWS V14.01,2013-08-03 23:58:00,
2013-08-03 20:03:00,64.4,60.5,29.83,SW,236,1.0,2.0,87,0.03,,BKN250,0.03,VWS V14.01,2013-08-04 00:03:00,
2013-08-03 20:08:00,63.9,60.0,29.83,SW,236,0.0,2.0,87,0.03,,BKN250,0.03,VWS V14.01,2013-08-04 00:08:00,
2013-08-03 20:13:00,63.3,60.0,29.83,SW,236,3.0,3.0,89,0.03,,BKN250,0.03,VWS V14.01,2013-08-04 00:13:00,
2013-08-03 20:18:00,62.9,59.9,29.84,SW,236,2.0,2.0,90,0.03,,BKN250,0.03,VWS V14.01,2013-08-04 00:18:00,
2013-08-03 20:24:00,62.6,59.9,29.84,SW,236,0.0,2.0,91,0.03,,BKN250,0.03,VWS V14.01,2013-08-04 00:24:00,
2013-08-03 20:28:00,62.5,60.2,29.84,SW,236,0.0,2.0,92,0.03,,BKN250,0.03,VWS V14.01,2013-08-04 00:28:00,
2013-08-03 20:34:00,62.5,60.5,29.84,SW,236,0.0,2.0,93,0.02,,BKN250,0.03,VWS V14.01,2013-08-04 00:34:00,
2013-08-03 20:39:00,62.3,60.2,29.85,SW,236,0.0,2.0,93,0.01,,BKN250,0.03,VWS V14.01,2013-08-04 00:39:00,
2013-08-03 20:43:00,62.1,60.4,29.85,SW,236,0.0,2.0,94,0.00,,BKN250,0.03,VWS V14.01,2013-08-04 00:43:00,
2013-08-03 20:49:00,62.1,60.4,29.85,SW,236,0.0,2.0,94,0.00,,BKN250,0.03,VWS V14.01,2013-08-04 00:49:00,
2013-08-03 20:54:00,62.1,60.7,29.85,SW,236,0.0,2.0,95,0.00,,BKN250,0.03,VWS V14.01,2013-08-04 00:54:00,
2013-08-03 20:58:00,62.1,60.7,29.85,SW,236,0.0,2.0,95,0.00,,BKN250,0.03,VWS V14.01,2013-08-04 00:58:00,
2013-08-03 21:04:00,62.1,60.7,29.85,SW,236,0.0,2.0,95,0.00,,SCT250,0.03,VWS V14.01,2013-08-04 01:04:00,
2013-08-03 21:09:00,62.1,61.0,29.85,SW,236,0.0,2.0,96,0.00,,SCT250,0.03,VWS V14.01,2013-08-04 01:09:00,
2013-08-03 21:14:00,62.3,61.2,29.86,SW,236,0.0,2.0,96,0.00,,SCT250,0.03,VWS V14.01,2013-08-04 01:14:00,
2013-08-03 21:19:00,62.3,61.2,29.86,SW,236,0.0,2.0,96,0.00,,SCT250,0.03,VWS V14.01,2013-08-04 01:19:00,
2013-08-03 21:24:00,62.5,61.3,29.86,SW,236,0.0,2.0,96,0.00,,SCT250,0.03,VWS V14.01,2013-08-04 01:24:00,
2013-08-03 21:29:00,62.5,61.3,29.86,SW,236,0.0,2.0,96,0.00,,SCT250,0.03,VWS V14.01,2013-08-04 01:29:00,
2013-08-03 21:34:00,62.6,61.7,29.86,SW,236,0.0,2.0,97,0.00,,SCT250,0.03,VWS V14.01,2013-08-04 01:34:00,
2013-08-03 21:39:00,62.6,61.7,29.86,SW,236,0.0,2.0,97,0.00,,SCT250,0.03,VWS V14.01,2013-08-04 01:39:00,
2013-08-03 21:44:00,62.6,61.7,29.86,SW,236,0.0,2.0,97,0.00,,SCT250,0.03,VWS V14.01,2013-08-04 01:44:00,
2013-08-03 21:49:00,62.6,61.7,29.86,SW,236,0.0,2.0,97,0.00,,SCT250,0.03,VWS V14.01,2013-08-04 01:49:00,
2013-08-03 21:53:00,62.6,61.7,29.86,SW,236,0.0,2.0,97,0.00,,SCT250,0.03,VWS V14.01,2013-08-04 01:53:00,
2013-08-03 21:59:00,62.6,61.7,29.86,SW,236,0.0,2.0,97,0.00,,SCT250,0.03,VWS V14.01,2013-08-04 01:59:00,
2013-08-03 22:03:00,62.6,61.7,29.87,SW,236,0.0,2.0,97,0.00,,SCT250,0.03,VWS V14.01,2013-08-04 02:03:00,
2013-08-03 22:09:00,62.6,61.7,29.87,SW,236,0.0,2.0,97,0.00,,SCT250,0.03,VWS V14.01,2013-08-04 02:09:00,
2013-08-03 22:14:00,62.6,61.7,29.87,SW,236,0.0,2.0,97,0.00,,SCT250,0.03,VWS V14.01,2013-08-04 02:14:00,
2013-08-03 22:19:00,62.6,61.7,29.87,SW,236,0.0,2.0,97,0.00,,SCT250,0.03,VWS V14.01,2013-08-04 02:19:00,
2013-08-03 22:24:00,62.6,61.7,29.88,SW,236,0.0,2.0,97,0.00,,SCT250,0.03,VWS V14.01,2013-08-04 02:24:00,
2013-08-03 22:29:00,62.6,62.0,29.88,SW,236,0.0,2.0,98,0.01,,SCT250,0.04,VWS V14.01,2013-08-04 02:29:00,
2013-08-03 22:34:00,62.6,62.0,29.88,SW,236,0.0,2.0,98,0.01,,SCT250,0.04,VWS V14.01,2013-08-04 02:34:00,
2013-08-03 22:39:00,62.6,62.0,29.88,SW,236,0.0,2.0,98,0.01,,SCT250,0.04,VWS V14.01,2013-08-04 02:39:00,
2013-08-03 22:44:00,62.6,62.0,29.88,SW,236,0.0,2.0,98,0.01,,SCT250,0.04,VWS V14.01,2013-08-04 02:44:00,
2013-08-03 22:49:00,62.5,61.9,29.88,SW,236,0.0,2.0,98,0.01,,SCT250,0.04,VWS V14.01,2013-08-04 02:49:00,
2013-08-03 22:54:00,62.5,61.9,29.87,SW,236,0.0,2.0,98,0.01,,SCT250,0.04,VWS V14.01,2013-08-04 02:54:00,
2013-08-03 22:59:00,62.3,61.7,29.87,SW,236,0.0,2.0,98,0.01,,SCT250,0.04,VWS V14.01,2013-08-04 02:59:00,
2013-08-03 23:04:00,62.3,61.7,29.87,SW,236,0.0,2.0,98,0.01,,CLR,0.04,VWS V14.01,2013-08-04 03:04:00,
2013-08-03 23:09:00,62.3,61.7,29.87,SW,236,0.0,2.0,98,0.01,,CLR,0.04,VWS V14.01,2013-08-04 03:09:00,
2013-08-03 23:14:00,62.1,61.5,29.87,SW,236,0.0,2.0,98,0.01,,CLR,0.04,VWS V14.01,2013-08-04 03:14:00,
2013-08-03 23:19:00,61.8,61.2,29.87,SW,236,0.0,2.0,98,0.01,,CLR,0.04,VWS V14.01,2013-08-04 03:19:00,
2013-08-03 23:24:00,61.8,61.2,29.87,SW,236,0.0,2.0,98,0.01,,CLR,0.04,VWS V14.01,2013-08-04 03:24:00,
2013-08-03 23:29:00,61.7,61.1,29.87,SW,236,0.0,2.0,98,0.00,,CLR,0.04,VWS V14.01,2013-08-04 03:29:00,
2013-08-03 23:34:00,61.7,61.1,29.87,SW,236,0.0,2.0,98,0.00,,CLR,0.04,VWS V14.01,2013-08-04 03:34:00,
2013-08-03 23:39:00,61.7,61.1,29.88,SW,236,0.0,2.0,98,0.00,,CLR,0.04,VWS V14.01,2013-08-04 03:39:00,
2013-08-03 23:44:00,61.7,61.1,29.87,SW,236,0.0,2.0,98,0.00,,CLR,0.04,VWS V14.01,2013-08-04 03:44:00,
2013-08-03 23:49:00,61.5,60.9,29.87,SW,236,0.0,2.0,98,0.00,,CLR,0.04,VWS V14.01,2013-08-04 03:49:00,
2013-08-03 23:54:00,61.5,60.9,29.87,SW,236,0.0,2.0,98,0.00,,CLR,0.04,VWS V14.01,2013-08-04 03:54:00,